Home > Weather > Sarasota > Past weeks

Flag for USA Past Weather in Sarasota, Florida, USA — Yesterday and Last 2 Weeks

Now
74 °F

Clear.


Feels Like: 73 °F
Forecast: 78 / 89 °F
Wind: No wind

Location: Sarasota-Bradenton International Airport

Current Time: Jun 27, 2016 at 2:06:10 AM

Latest Report: Jun 27, 2016 at 12:53 AM


Visibility: 10 mi

Pressure: 30.07 "Hg

Humidity: 88%

Dew Point: 70 °F

Location of SarasotaLocation

Past Weather in Sarasota — Graph

°F

Sarasota Temperature Yesterday

Maximum temperature yesterday: 94 °F (at 1:04 PM)
Minimum temperature yesterday: 73 °F (at 3:53 PM)
Average temperature yesterday: 81 °F

High & Low Weather Summary for the Past Weeks

 TemperatureHumidityPressure
High94 °F (Jun 26, 1:04 PM)91% (Jun 23, 6:53 AM)30.17 "Hg (Jun 23, 6:53 AM)
Low70 °F (Jun 21, 3:53 AM)39% (Jun 20, 5:53 PM)29.91 "Hg (Jun 17, 7:53 PM)
Average84 °F70%30.04 "Hg
* Reported Jun 12 12:53 AM — Jun 27 12:53 AM, Sarasota, Weather by CustomWeather, © 2016

Note: Actual official high and low records may vary slightly from our data, if they occured in-between our weather recording intervals... More about our weather records

Advertising

Sarasota Weather History for the Previous 24 Hours

Scroll right to see more
 ConditionsComfort  
Time TempWeatherWind HumidityBarometerVisibility
12:53 AM
Mon, Jun 27
74 °FClear.No wind88%30.07 "Hg10 mi
11:53 PM
Sun, Jun 26
74 °FClear.3 mph88%30.07 "Hg10 mi
10:53 PM75 °FClear.3 mph85%30.05 "Hg10 mi
9:53 PM76 °FClear.No wind82%30.06 "Hg10 mi
8:53 PM77 °FSunny.5 mph77%30.07 "Hg10 mi
7:53 PM79 °FSunny.9 mph72%30.06 "Hg10 mi
6:53 PM78 °FSunny.12 mph76%30.05 "Hg10 mi
5:53 PM77 °FSunny.8 mph79%30.03 "Hg10 mi
5:03 PM76 °FThundershowers. Scattered clouds.9 mph82%30.06 "Hg10 mi
3:53 PM73 °FThunderstorms. Fog.10 mph88%30.08 "Hg2 mi
3:00 PM83 °FThunderstorms. Broken clouds.15 mph63%30.08 "Hg10 mi
1:53 PM92 °FThundershowers. Partly sunny.15 mph58%30.06 "Hg10 mi
1:04 PM94 °FThundershowers. Cloudy.5 mph49%30.08 "HgN/A
11:53 AM90 °FPartly sunny.7 mph61%30.10 "Hg10 mi
10:53 AM91 °FPassing clouds.6 mph56%30.10 "Hg10 mi
9:53 AM88 °FSunny.No wind63%30.10 "Hg10 mi
8:53 AM85 °FSunny.3 mph77%30.10 "Hg10 mi
7:53 AM81 °FSunny.3 mph85%30.09 "Hg10 mi
6:53 AM78 °FClear.No wind90%30.07 "Hg10 mi
5:53 AM79 °FClear.3 mph88%30.05 "Hg10 mi
4:53 AM79 °FClear.No wind88%30.05 "Hg10 mi
3:53 AM79 °FClear.3 mph88%30.05 "Hg10 mi
2:53 AM80 °FPassing clouds.3 mph85%30.05 "Hg10 mi
Weather by CustomWeather, © 2016

See weather overviewHow to use our weather pages